FW0596 Weather Reports


time (UTC)temp
F
wind
direction
speed
knots
gust
knots
rain 1hr
in
rain 24hr
in
rain mn
in
humidity
%
barometer
mb
20260507100004 55 9 0.0 0.0 0.00 0.00 0.12 84 1010.2
20260507094504 55 9 0.0 0.0 0.00 0.00 0.12 85 1010.1
20260507093003 55 9 0.0 0.0 0.00 0.00 0.12 84 1010.2
20260507091506 55 9 0.0 0.0 0.00 0.00 0.12 84 1010.2
20260507090100 55 9 0.0 0.0 0.00 0.00 0.12 83 1010.0
20260507084601 56 9 0.0 0.0 0.00 0.00 0.12 83 1009.9
20260507083112 56 5 0.0 0.0 0.00 0.00 0.12 84 1009.8
20260507081600 57 5 0.0 0.0 0.00 0.00 0.12 85 1009.2
20260507080052 57 9 0.0 0.0 0.00 0.00 0.12 84 1009.2
20260507074558 57 346 0.0 0.0 0.00 0.00 0.12 84 1009.0
20260507073059 56 5 0.0 0.0 0.00 0.00 0.12 84 1009.0
20260507071550 56 355 0.0 0.0 0.00 0.00 0.12 85 1008.4
20260507070050 57 360 0.9 0.0 0.00 0.00 0.12 85 1008.9
20260507064549 57 5 0.9 0.0 0.00 0.00 0.12 86 1008.3
20260507063049 57 71 0.9 0.0 0.00 0.00 0.12 86 1008.0
20260507061545 58 53 0.9 0.0 0.00 0.00 0.12 88 1008.5
20260507060043 58 297 0.9 0.0 0.00 0.00 0.12 86 1008.6
20260507054543 59 320 0.0 0.0 0.00 0.00 0.12 86 1008.5
20260507053037 60 360 1.7 0.0 0.00 0.00 0.09 85 1008.5
20260507051534 62 14 0.0 0.0 0.00 0.00 0.05 85 1008.9
20260507050036 63 295 0.0 0.0 0.00 0.00 0.03 82 1008.7
20260507044535 65 307 0.9 0.0 0.00 0.00 0.00 77 1009.1
20260507043025 65 360 0.9 0.0 0.00 0.00 0.00 76 1008.4
20260507041530 65 5 0.0 0.0 0.00 0.00 0.00 75 1008.0
20260507040019 65 12 1.7 0.0 0.00 0.00 0.00 74 1007.9
20260507034518 66 346 1.7 0.0 0.00 0.00 0.09 76 1008.1
20260507033020 67 360 0.9 0.0 0.00 0.00 0.09 80 1007.9
20260507031524 67 312 0.0 0.0 0.00 0.00 0.09 84 1007.5
20260507030015 67 312 0.0 0.0 0.00 0.00 0.09 83 1007.6
20260507024516 66 298 0.0 0.0 0.00 0.00 0.09 84 1007.1
20260507023015 66 298 0.0 0.0 0.00 0.00 0.09 84 1007.2
20260507021516 66 298 0.0 0.0 0.00 0.00 0.09 83 1007.0
20260507020014 67 298 0.0 0.0 0.00 0.00 0.09 82 1007.1
20260507014517 67 298 0.0 0.0 0.00 0.00 0.09 82 1007.2
20260507013020 67 298 0.0 0.0 0.00 0.00 0.09 82 1007.7
20260507011518 67 298 0.0 0.0 0.00 0.00 0.09 83 1007.9
20260507010012 67 298 0.0 0.0 0.00 0.00 0.09 82 1007.6
20260507004528 67 298 0.0 0.0 0.00 0.00 0.09 82 1007.3
20260507003011 68 298 0.0 0.0 0.00 0.00 0.09 80 1007.2
20260507001511 68 298 0.0 0.0 0.00 0.00 0.09 80 1007.3
20260507000014 69 298 0.0 0.0 0.00 0.00 0.09 79 1007.2
20260506234510 69 298 0.0 0.0 0.00 0.00 0.09 78 1007.0
20260506233009 70 298 0.0 0.0 0.00 0.00 0.09 77 1006.8
20260506231522 70 298 0.0 0.0 0.00 0.00 0.09 77 1006.6
20260506230008 70 286 0.0 0.0 0.00 0.00 0.09 77 1006.7
20260506224508 70 248 0.0 0.0 0.00 0.00 0.09 76 1006.6
20260506223007 71 205 0.0 0.0 0.00 0.00 0.09 75 1006.7
20260506221507 71 246 0.0 0.0 0.00 0.00 0.09 75 1006.7
20260506220007 71 250 0.0 0.0 0.00 0.00 0.09 75 1006.6
20260506214506 71 210 0.0 0.0 0.00 0.00 0.09 75 1006.6
20260506213006 71 203 0.0 0.0 0.00 0.00 0.09 75 1006.4
20260506211512 71 305 0.0 0.0 0.00 0.00 0.09 75 1006.4
20260506210007 71 246 0.0 0.0 0.00 0.00 0.09 75 1006.3
20260506204506 71 343 0.0 0.0 0.00 0.00 0.09 75 1006.1
20260506203004 71 315 0.0 0.0 0.00 0.00 0.09 75 1006.2
20260506201503 71 11 0.0 0.0 0.00 0.00 0.09 76 1006.3
20260506200004 70 265 0.9 0.0 0.00 0.00 0.09 76 1006.2
20260506194623 71 311 0.9 0.0 0.00 0.00 0.09 75 1006.2
20260506193058 70 186 0.9 0.0 0.00 0.00 0.09 76 1006.4
20260506191557 70 196 0.9 0.0 0.00 0.00 0.09 76 1006.7
20260506190055 70 197 0.9 0.0 0.00 0.00 0.09 77 1006.6
20260506184606 69 250 0.9 0.0 0.00 0.00 0.09 76 1006.8
20260506183101 69 232 0.9 0.0 0.00 0.00 0.09 76 1007.0
20260506181551 69 205 0.9 0.0 0.00 0.00 0.09 78 1007.3
20260506180053 68 202 0.9 0.0 0.00 0.00 0.09 79 1007.5
20260506174548 67 219 0.0 0.0 0.00 0.00 0.09 80 1007.6
20260506173052 66 198 0.9 0.0 0.00 0.00 0.09 81 1007.6
20260506171552 66 205 0.9 0.0 0.00 0.00 0.09 83 1007.7
20260506170106 65 184 0.9 0.0 0.00 0.00 0.09 83 1007.7
20260506164547 64 237 0.9 0.0 0.00 0.00 0.09 85 1007.8
20260506163057 64 186 1.7 0.0 0.00 0.00 0.09 86 1007.8
20260506161545 63 208 0.9 0.0 0.00 0.00 0.09 88 1008.1
20260506160044 63 199 0.0 0.0 0.00 0.00 0.09 88 1008.3
20260506154543 63 5 0.9 0.0 0.00 0.00 0.08 88 1008.1
20260506153044 63 184 0.9 0.0 0.00 0.00 0.08 87 1008.4
20260506151545 62 187 0.0 0.0 0.00 0.00 0.07 87 1009.0
20260506150040 62 209 0.0 0.0 0.00 0.00 0.07 87 1008.9
20260506144550 63 209 0.0 0.0 0.00 0.00 0.04 85 1008.9
20260506143037 63 211 0.0 0.0 0.00 0.00 0.02 83 1009.0
20260506141535 64 311 0.0 0.0 0.00 0.00 0.02 82 1009.2
20260506140032 65 192 0.0 0.0 0.00 0.00 0.00 77 1009.2
20260506134532 66 203 0.0 0.0 0.00 0.00 0.00 73 1009.4
20260506133030 66 248 0.0 0.0 0.00 0.00 0.00 72 1009.1
20260506131534 67 204 0.9 0.0 0.00 0.00 0.00 72 1009.0
20260506130030 67 197 0.0 0.0 0.00 0.00 0.00 71 1008.8
20260506124530 67 205 0.9 0.0 0.00 0.00 0.00 72 1008.9
20260506123032 67 205 0.0 0.0 0.00 0.00 0.00 72 1009.0
20260506121529 67 198 0.9 0.0 0.00 0.00 0.00 72 1009.1
20260506120039 67 202 0.9 0.0 0.00 0.00 0.00 73 1009.1
20260506114532 67 202 0.9 0.0 0.00 0.00 0.00 74 1008.9
20260506113031 66 207 0.9 0.0 0.00 0.00 0.00 75 1008.9
20260506111527 65 197 0.0 0.0 0.00 0.00 0.00 78 1008.7
20260506110026 65 199 0.9 0.0 0.00 0.00 0.00 77 1008.5
20260506104526 66 196 0.0 0.0 0.00 0.00 0.00 76 1008.5
20260506103025 65 222 0.0 0.0 0.00 0.00 0.00 76 1008.5
20260506101525 65 193 0.0 0.0 0.00 0.00 0.00 76 1008.3